K5LLL-13 Weather Reports


time (UTC)temp
F
wind
direction
speed
knots
gust
knots
rain 1hr
in
rain 24hr
in
rain mn
in
humidity
%
barometer
mb
20260506185016 74 23 1.7 5.2 0.00 0.00 0.00 82 1011.6
20260506184036 73 0 2.6 7.0 0.00 0.00 0.00 81 1011.5
20260506183016 72 0 3.5 7.8 0.00 0.00 0.00 82 1011.6
20260506182016 71 68 2.6 8.7 0.00 0.00 0.00 84 1011.4
20260506181016 69 45 3.5 8.7 0.00 0.00 0.00 85 1011.5
20260506180016 68 68 3.5 7.8 0.00 0.00 0.00 86 1011.4
20260506175036 68 68 3.5 8.7 0.00 0.00 0.00 86 1011.9
20260506174016 67 23 2.6 8.7 0.00 0.00 0.00 88 1012.1
20260506173016 66 23 2.6 9.6 0.00 0.00 0.00 89 1012.3
20260506172016 65 338 3.5 9.6 0.00 0.00 0.00 90 1012.7
20260506171017 64 23 5.2 12.2 0.00 0.00 0.00 92 1012.8
20260506170016 64 23 7.0 14.8 0.00 0.00 0.00 92 1013.0
20260506165036 64 23 5.2 15.6 0.00 0.00 0.00 92 1012.9
20260506164016 65 23 6.1 17.4 0.00 0.00 0.00 90 1013.4
20260506163036 67 315 6.1 15.6 0.00 0.00 0.00 88 1013.5
20260506162036 72 315 10.4 20.9 0.00 0.00 0.00 81 1013.2
20260506161015 77 0.0 0.0 0.00 0.00 0.00 90 1013.0
20260506160016 77 0.0 0.9 0.00 0.00 0.00 90 1012.9
20260506155016 77 0.0 0.9 0.00 0.00 0.00 91 1012.6
20260506154016 77 0.0 1.7 0.00 0.00 0.00 91 1012.4
20260506153016 77 0.0 0.9 0.00 0.00 0.00 92 1012.0
20260506152036 76 0.0 0.9 0.00 0.00 0.00 92 1011.9
20260506151016 76 0.0 2.6 0.00 0.00 0.00 92 1011.6
20260506150016 76 90 1.7 4.3 0.00 0.00 0.00 92 1011.5
20260506145016 76 90 0.9 3.5 0.00 0.00 0.00 93 1011.2
20260506144016 76 68 0.9 2.6 0.00 0.00 0.00 93 1011.3
20260506143036 76 0.0 1.7 0.00 0.00 0.00 93 1011.5
20260506142015 76 0.0 0.9 0.00 0.00 0.00 94 1011.5
20260506141016 75 0.0 1.7 0.00 0.00 0.00 94 1011.2
20260506140015 75 0.0 2.6 0.00 0.00 0.00 94 1010.7
20260506135016 75 0.0 2.6 0.00 0.00 0.00 94 1010.5
20260506134015 75 0.0 1.7 0.00 0.00 0.00 95 1010.5
20260506133015 75 0.0 0.9 0.00 0.00 0.00 94 1010.4
20260506132036 75 0.0 2.6 0.00 0.00 0.00 95 1010.6
20260506131015 75 113 0.9 2.6 0.00 0.00 0.00 95 1010.6
20260506130036 74 113 0.9 2.6 0.00 0.00 0.00 95 1010.4
20260506125015 74 0.0 1.7 0.00 0.00 0.00 95 1010.5
20260506124015 74 0.0 1.7 0.00 0.00 0.00 95 1010.5
20260506123015 74 0.0 0.9 0.00 0.00 0.00 95 1010.5
20260506122055 74 0.0 0.9 0.00 0.00 0.00 95 1010.4
20260506121035 74 0.0 0.9 0.00 0.00 0.00 94 1010.3
20260506120015 74 0.0 0.9 0.00 0.00 0.00 94 1010.3
20260506115015 74 0.0 0.9 0.00 0.00 0.00 94 1010.3
20260506114015 74 0.0 0.9 0.00 0.00 0.00 93 1010.3
20260506113015 75 0.0 3.5 0.00 0.00 0.00 93 1010.2
20260506112015 75 158 0.9 3.5 0.00 0.00 0.00 93 1010.1
20260506111015 75 158 0.9 3.5 0.00 0.00 0.00 93 1010.1
20260506110015 75 158 0.9 2.6 0.00 0.00 0.00 93 1010.0
20260506105015 75 203 0.9 2.6 0.00 0.00 0.00 93 1009.9
20260506104015 75 158 0.9 3.5 0.00 0.00 0.00 93 1009.9
20260506103015 75 158 0.9 3.5 0.00 0.00 0.00 93 1009.9
20260506102015 75 158 0.9 4.3 0.00 0.00 0.00 93 1009.8
20260506101035 75 135 0.9 4.3 0.00 0.00 0.00 93 1009.7
20260506100015 75 158 1.7 5.2 0.00 0.00 0.00 93 1009.5
20260506095015 75 158 2.6 6.1 0.00 0.00 0.00 93 1009.4
20260506094017 75 158 3.5 7.8 0.00 0.00 0.00 93 1009.3
20260506093017 75 158 4.3 8.7 0.00 0.00 0.00 93 1009.1
20260506092017 75 158 5.2 10.4 0.00 0.00 0.00 93 1009.0
20260506091017 75 158 5.2 9.6 0.00 0.00 0.00 93 1009.1
20260506090037 75 135 4.3 9.6 0.00 0.00 0.00 93 1009.2
20260506085037 75 158 5.2 13.9 0.00 0.00 0.00 93 1008.8
20260506084017 75 158 7.8 13.0 0.00 0.00 0.00 93 1009.0
20260506083017 75 158 5.2 12.2 0.00 0.00 0.00 93 1008.9
20260506082017 75 180 6.1 13.9 0.00 0.00 0.00 93 1008.9
20260506081017 75 158 7.0 15.6 0.00 0.00 0.00 93 1009.0
20260506073017 75 158 6.1 12.2 0.00 0.00 0.00 94 1009.3
20260506072017 74 158 5.2 9.6 0.00 0.00 0.00 94 1009.5
20260506071017 75 158 6.1 15.6 0.00 0.00 0.00 94 1009.5
20260506062017 74 135 3.5 9.6 0.00 0.00 0.00 94 1009.5
20260506061017 74 135 3.5 8.7 0.00 0.00 0.00 94 1009.6
20260506051017 75 135 2.6 7.0 0.00 0.00 0.00 93 1009.5
20260506045015 75 135 5.2 9.6 0.00 0.00 0.00 93 1009.3
20260506044017 75 135 3.5 7.8 0.00 0.00 0.00 93 1009.3
20260506043015 75 135 3.5 8.7 0.00 0.00 0.00 93 1009.4
20260506042015 75 135 5.2 8.7 0.00 0.00 0.00 92 1009.3
20260506041037 75 135 5.2 9.6 0.00 0.00 0.00 92 1009.4
20260506040017 75 135 4.3 10.4 0.00 0.00 0.00 91 1009.3
20260506035017 75 135 4.3 7.8 0.00 0.00 0.00 91 1009.0
20260506034037 75 135 4.3 9.6 0.00 0.00 0.00 91 1008.8
20260506033017 76 135 4.3 9.6 0.00 0.00 0.00 90 1008.7
20260506032018 76 135 4.3 8.7 0.00 0.00 0.00 90 1008.6
20260506031017 76 135 3.5 6.1 0.00 0.00 0.00 89 1008.6
20260506030017 76 135 5.2 10.4 0.00 0.00 0.00 89 1008.5
20260506025017 76 135 4.3 8.7 0.00 0.00 0.00 89 1008.2
20260506024037 76 135 4.3 8.7 0.00 0.00 0.00 88 1008.3
20260506023017 77 135 5.2 8.7 0.00 0.00 0.00 88 1008.0
20260506022017 77 135 4.3 8.7 0.00 0.00 0.00 88 1007.8
20260506021017 77 135 4.3 7.8 0.00 0.00 0.00 87 1007.7
20260506020018 78 135 3.5 8.7 0.00 0.00 0.00 86 1007.7
20260506015017 78 135 3.5 8.7 0.00 0.00 0.00 85 1007.7
20260506014017 78 135 3.5 7.0 0.00 0.00 0.00 84 1007.7
20260506013017 79 135 4.3 8.7 0.00 0.00 0.00 83 1007.7
20260506012017 79 158 2.6 6.1 0.00 0.00 0.00 83 1007.7
20260506011017 79 158 0.9 3.5 0.00 0.00 0.00 83 1007.5
20260506010017 80 158 2.6 5.2 0.00 0.00 0.00 82 1007.4
20260506005017 80 135 3.5 7.8 0.00 0.00 0.00 81 1007.0
20260506004037 80 135 3.5 8.7 0.00 0.00 0.00 81 1007.0
20260506003016 81 135 4.3 9.6 0.00 0.00 0.00 81 1006.9
20260506002017 81 135 4.3 9.6 0.00 0.00 0.00 80 1006.8
20260506001017 81 135 2.6 6.1 0.00 0.00 0.00 80 1006.7
20260506000056 81 135 5.2 10.4 0.00 0.00 0.00 79 1006.7
20260505235017 82 135 6.1 10.4 0.00 0.00 0.00 79 1006.6
20260505234017 82 135 4.3 10.4 0.00 0.00 0.00 78 1006.6
20260505233036 83 135 4.3 8.7 0.00 0.00 0.00 77 1006.6
20260505232017 83 135 5.2 9.6 0.00 0.00 0.00 76 1006.5
20260505231016 83 135 2.6 7.0 0.00 0.00 0.00 75 1006.6
20260505230016 83 158 4.3 7.8 0.00 0.00 0.00 74 1006.5
20260505225016 83 158 4.3 10.4 0.00 0.00 0.00 74 1006.6
20260505224016 83 158 5.2 9.6 0.00 0.00 0.00 74 1006.6
20260505223036 83 158 5.2 13.0 0.00 0.00 0.00 74 1006.6
20260505222016 83 158 5.2 13.9 0.00 0.00 0.00 74 1006.7
20260505221016 83 180 5.2 10.4 0.00 0.00 0.00 74 1006.7
20260505220017 83 158 4.3 12.2 0.00 0.00 0.00 73 1006.9
20260505215016 84 203 4.3 11.3 0.00 0.00 0.00 74 1006.9
20260505214016 84 180 7.0 13.0 0.00 0.00 0.00 72 1007.0
20260505213016 84 203 7.0 16.5 0.00 0.00 0.00 72 1007.1
20260505212016 83 203 7.0 13.9 0.00 0.00 0.00 73 1007.2
20260505211016 83 203 5.2 12.2 0.00 0.00 0.00 75 1007.5
20260505210016 82 203 7.0 13.0 0.00 0.00 0.00 75 1007.7
20260505205016 82 203 3.5 9.6 0.00 0.00 0.00 76 1007.9
20260505204056 82 203 7.0 14.8 0.00 0.00 0.00 76 1008.1
20260505203016 81 203 7.8 14.8 0.00 0.00 0.00 77 1008.2
20260505202016 82 158 4.3 11.3 0.00 0.00 0.00 77 1008.3
20260505201016 81 203 6.1 12.2 0.00 0.00 0.00 78 1008.3
20260505200036 82 225 5.2 12.2 0.00 0.00 0.00 77 1008.4
20260505195016 81 203 7.8 13.9 0.00 0.00 0.00 78 1008.7
20260505194016 81 158 8.7 16.5 0.00 0.00 0.00 77 1008.9
20260505193016 80 158 7.8 14.8 0.00 0.00 0.00 79 1008.9
20260505191016 80 158 7.0 13.9 0.00 0.00 0.00 80 1009.2
20260505190056 79 158 6.1 11.3 0.00 0.00 0.00 81 1009.0